Regional Weather Roundup
Issued by NWS

Home | Current Version | Previous Version | Graphics & Text | Print | Product List | Glossary On
Versions: 1 2 3 4 5 6 7 8 9 10 11 12 13 14 15 16 17 18 19 20 21 22 23 24 25 26 27 28 29 30 31 32 33 34 35 36 37 38 39 40 41 42 43 44 45 46 47 48 49 50
000
ASUS44 KMEG 230400
RWRTN
TENNESSEE HOURLY STATE WEATHER ROUNDUP
NATIONAL WEATHER SERVICE MEMPHIS TN
1000 PM CST SAT NOV 22 2014

TNZ002-004-019-021-049-052-054-088>092-230500-
WEST TENNESSEE

CITY           SKY/WX    TMP DP  RH WIND       PRES   REMARKS
MEMPHIS INTL   MOCLDY    60  47  61 S10       29.98F
NWS MEMPHIS      N/A     58 N/A N/A MISG        N/A
JACKSON        MOCLDY    58  44  60 S6        30.01F
DYERSBURG      PTCLDY    55  36  47 SE5       30.00F
UNION CITY     CLEAR     52  37  58 CALM      29.99F
PARIS          CLEAR     54  39  58 S9        30.02F
LEXINGTON      CLEAR     55  43  62 SE5       30.03F
SAVANNAH       PTCLDY    57  46  67 SE7       30.05F
$$

TNZ008-025-027-028-033-062-065-066-230500-
NORTH MIDDLE TENNESSEE

CITY           SKY/WX    TMP DP  RH WIND       PRES   REMARKS
NASHVILLE      MOCLDY    54  38  54 S10       30.10F
CLARKSVILLE    CLEAR     56  40  55 S7        30.05F
CROSSVILLE     MOCLDY    55  38  52 VRB7G18   30.16F
$$

TNZ061-075-076-078-094-096-097-230500-
SOUTH MIDDLE TENNESSEE

CITY           SKY/WX    TMP DP  RH WIND       PRES   REMARKS
WINCHESTER     CLEAR     54  34  47 SE17      30.13F
SHELBYVILLE    PTCLDY    55  37  50 SE7       30.12F
$$

TNZ017-018-042-046-047-230500-
NORTHEAST TENNESSEE

CITY           SKY/WX    TMP DP  RH WIND       PRES   REMARKS
TRI CITIES     MOCLDY    39  25  57 CALM      30.23S
ELIZABETHTON   CLEAR     36  25  64 E6        30.25S WCI  31
$$

TNZ012-013-036-069-073-074-230500-
CENTRAL EAST TENNESSEE

CITY           SKY/WX    TMP DP  RH WIND       PRES   REMARKS
KNOXVILLE      CLOUDY    43  30  60 N3        30.19S
OAK RIDGE      CLOUDY    44  36  73 CALM      30.20F
GATLINBURG     CLEAR     36  28  75 CALM      30.19S
$$

TNZ083-085-099-230500-
SOUTHEAST TENNESSEE

CITY           SKY/WX    TMP DP  RH WIND       PRES   REMARKS
CHATTANOOGA    MOCLDY    56  27  32 S8        30.20F
$$

SKY/WX REPORTED AS FAIR MEANS FEW OR NO CLOUDS BELOW
12 THOUSAND FEET.




USA.gov is the U.S. government's official web portal to all federal, state and local government web resources and services.